Regional Weather Roundup
Issued by NWS

Home | Current Version | Previous Version | Graphics & Text | Print | Product List | Glossary Off
Versions: 1 2 3 4 5 6 7 8 9 10 11 12 13 14 15 16 17 18 19 20 21 22 23 24 25 26 27 28 29 30 31 32 33 34 35 36 37 38 39 40 41 42 43 44 45 46 47 48 49 50

000
ASUS45 KSLC 281610
RWRUT

UTAH REGIONAL WEATHER ROUNDUP
NATIONAL WEATHER SERVICE SALT LAKE CITY UT
1000 AM MDT TUE JUL 28 2015

UTZ001>011-023>025-281700-

NORTHERN UTAH

CITY           SKY/WX    TMP DP  RH WIND       PRES   REMARKS
BRIGHAM CITY   SUNNY     62  30  29 NE3       30.30S
HILL AFB       SUNNY     63  27  25 N6        30.30R
LOGAN            N/A    N/A N/A N/A MISG      30.31R
OGDEN          SUNNY     65  28  24 N6        30.28R
PROVO AIRPORT  SUNNY     64  36  34 W6        30.29R
SALT LAKE CITY SUNNY     67  31  26 NW5       30.27S
VERNAL         SUNNY     68  29  23 E3        30.24F
WENDOVER       SUNNY     66  27  22 NE5       30.29F
HEBER CITY     SUNNY     59  36  41 CALM      30.32S
WEST JORDAN    SUNNY     66  27  22 NW12      30.29S

$$

UTZ012>022-026-027-281700-

SOUTHERN/CENTRAL UTAH

CITY           SKY/WX    TMP DP  RH WIND       PRES   REMARKS
BLANDING       SUNNY     77  33  20 SE7       30.26S
BRYCE CANYON   SUNNY     65  36  34 NE12      30.35S
CEDAR CITY     SUNNY     65  34  31 NW8       30.26R
DELTA          SUNNY     69  28  21 N12G17    30.26S
HANKSVILLE     SUNNY     75  32  20 CALM      30.17F
MILFORD        SUNNY     69  32  25 N20       30.25R
MOAB/CYNLANDS  SUNNY     77  34  21 CALM      30.14S
PRICE          SUNNY     74  25  16 NW8       30.23S
ST GEORGE      SUNNY     81  37  21 NW10      30.07S
KANAB          SUNNY     77  34  20 E3        30.22S

$$

REGIONAL REPORTS     COLORADO/ARIZONA

CITY           SKY/WX    TMP DP  RH WIND       PRES   REMARKS
CRAIG, CO      SUNNY     63  35  35 NE5       30.30F
GRAND JUNCTION SUNNY     75  36  24 VRB6      30.17F
RIFLE          SUNNY     68  36  30 VRB3      30.24S
MONTROSE       SUNNY     71  33  24 N7        30.25S
CORTEZ         SUNNY     72  38  29 CALM      30.21S
PAGE, AZ       SUNNY     80  32  17 VRB5      30.12S
GRAND CANYON   SUNNY     74  34  23 S8        30.29R
KINGMAN        SUNNY     86  29  12 CALM      30.04S
FLAGSTAFF      MOSUNNY   71  39  31 CALM      30.31S

$$

REGIONAL REPORTS    NEVADA/IDAHO/WYOMING

CITY           SKY/WX    TMP DP  RH WIND       PRES   REMARKS
LAS VEGAS, NV  SUNNY     90  29  11 N8        29.93R
ELY            SUNNY     60  25  26 N14       30.32S
ELKO           SUNNY     63  30  28 NE10      30.30S
POCATELLO, ID  MOSUNNY   57  41  55 CALM      30.34R
BURLEY         SUNNY     58  36  43 CALM      30.31R
EVANSTON, WY   SUNNY     56  22  26 SW9       30.36S
ROCK SPRINGS   SUNNY     58  25  28 W16G24    30.33S
KEMMERER       SUNNY     54  23  30 W13       30.36S

$$


USA.gov is the U.S. government's official web portal to all federal, state and local government web resources and services.